CW4086 Weather Reports


time (UTC)temp
C
wind
direction
speed
KPH
gust
KPH
rain 1hr
cm
rain 24hr
cm
rain mn
cm
humidity
%
barometer
mb
20260905173104 26 301 4.8 9.7 0.00 0.00 0.00 25 1014.6
20260905172603 25 290 4.8 8.0 0.00 0.00 0.00 28 1014.6
20260905172103 25 291 4.8 9.7 0.00 0.00 0.00 26 1014.7
20260905171603 25 291 4.8 9.7 0.00 0.00 0.00 26 1014.6
20260905171107 25 301 3.2 8.0 0.00 0.00 0.00 26 1014.6
20260905170604 25 302 4.8 8.0 0.00 0.00 0.00 26 1014.7
20260905170108 25 302 3.2 8.0 0.00 0.00 0.00 26 1014.7
20260905165604 25 306 3.2 8.0 0.00 0.00 0.00 26 1014.7
20260905165104 24 307 4.8 8.0 0.00 0.00 0.00 26 1014.7
20260905164604 24 306 4.8 8.0 0.00 0.00 0.00 27 1014.7
20260905163604 23 296 3.2 8.0 0.00 0.00 0.00 29 1014.6
20260905163104 23 297 3.2 8.0 0.00 0.00 0.00 29 1014.6
20260905161103 22 314 3.2 4.8 0.00 0.00 0.00 32 1014.6
20260905160603 22 321 4.8 4.8 0.00 0.00 0.00 31 1014.6
20260905160110 22 34 1.6 4.8 0.00 0.00 0.00 32 1014.5
20260905155604 22 34 3.2 4.8 0.00 0.00 0.00 31 1014.5
20260905155104 22 34 1.6 4.8 0.00 0.00 0.00 32 1014.5
20260905154603 22 34 0.0 3.2 0.00 0.00 0.00 34 1014.5
20260905154104 21 34 0.0 4.8 0.00 0.00 0.00 35 1014.5
20260905153604 21 34 1.6 4.8 0.00 0.00 0.00 36 1014.4
20260905153104 21 34 1.6 3.2 0.00 0.00 0.00 32 1014.4
20260905152103 21 34 0.0 1.6 0.00 0.00 0.00 37 1014.2
20260905150604 21 34 0.0 1.6 0.00 0.00 0.00 39 1014.2
20260905150109 21 34 0.0 1.6 0.00 0.00 0.00 31 1014.2
20260905145604 20 34 0.0 3.2 0.00 0.00 0.00 32 1014.2
20260905145104 20 34 0.0 3.2 0.00 0.00 0.00 32 1014.2
20260905144104 18 34 1.6 3.2 0.00 0.00 0.00 32 1014.1
20260905143604 18 34 3.2 3.2 0.00 0.00 0.00 32 1014.1
20260905143104 18 34 1.6 4.8 0.00 0.00 0.00 33 1014.0
20260905142604 17 34 1.6 4.8 0.00 0.00 0.00 36 1013.9
20260905142104 17 34 1.6 3.2 0.00 0.00 0.00 37 1013.9
20260905141604 17 34 1.6 3.2 0.00 0.00 0.00 37 1013.8
20260905140604 17 20 0.0 3.2 0.00 0.00 0.00 36 1013.7
20260905140104 17 20 1.6 3.2 0.00 0.00 0.00 36 1013.7
20260905135604 17 20 0.0 3.2 0.00 0.00 0.00 35 1013.7
20260905135104 17 20 1.6 4.8 0.00 0.00 0.00 35 1013.7
20260905134604 17 20 3.2 4.8 0.00 0.00 0.00 34 1013.7
20260905134104 17 19 1.6 3.2 0.00 0.00 0.00 35 1013.7
20260905133605 17 19 1.6 3.2 0.00 0.00 0.00 36 1013.7
20260905132604 17 19 1.6 3.2 0.00 0.00 0.00 35 1013.6
20260905132104 17 19 3.2 3.2 0.00 0.00 0.00 35 1013.6
20260905131604 17 19 3.2 3.2 0.00 0.00 0.00 36 1013.6
20260905131107 17 19 1.6 3.2 0.00 0.00 0.00 36 1013.7
20260905130605 17 19 1.6 3.2 0.00 0.00 0.00 36 1013.7
20260905130106 16 19 0.0 3.2 0.00 0.00 0.00 38 1013.8
20260905125604 16 19 1.6 3.2 0.00 0.00 0.00 37 1013.7
20260905125104 16 19 1.6 3.2 0.00 0.00 0.00 37 1013.7
20260905124604 16 19 0.0 3.2 0.00 0.00 0.00 36 1013.6
20260905124104 17 19 1.6 3.2 0.00 0.00 0.00 37 1013.5
20260905123604 17 19 1.6 3.2 0.00 0.00 0.00 37 1013.3
20260905123104 17 19 0.0 3.2 0.00 0.00 0.00 35 1013.3
20260905122604 17 19 1.6 3.2 0.00 0.00 0.00 36 1013.3
20260905122104 17 19 3.2 3.2 0.00 0.00 0.00 37 1013.3
20260905121104 17 19 3.2 4.8 0.00 0.00 0.00 38 1013.3
20260905120108 16 19 1.6 4.8 0.00 0.00 0.00 39 1013.3
20260905115604 16 19 1.6 4.8 0.00 0.00 0.00 39 1013.3
20260905115103 16 19 1.6 3.2 0.00 0.00 0.00 40 1013.3
20260905114603 16 19 1.6 3.2 0.00 0.00 0.00 39 1013.3
20260905113605 16 19 3.2 3.2 0.00 0.00 0.00 40 1013.2
20260905113104 16 19 1.6 3.2 0.00 0.00 0.00 40 1013.3
20260905112604 16 19 1.6 3.2 0.00 0.00 0.00 40 1013.3
20260905112104 16 19 1.6 3.2 0.00 0.00 0.00 40 1013.3
20260905111604 16 19 1.6 3.2 0.00 0.00 0.00 41 1013.3
20260905111107 16 19 1.6 3.2 0.00 0.00 0.00 40 1013.4
20260905110107 17 19 0.0 3.2 0.00 0.00 0.00 40 1013.4
20260905105604 17 19 1.6 3.2 0.00 0.00 0.00 41 1013.5
20260905105104 16 19 1.6 3.2 0.00 0.00 0.00 41 1013.6
20260905104604 16 19 1.6 3.2 0.00 0.00 0.00 41 1013.7
20260905104103 16 19 1.6 3.2 0.00 0.00 0.00 42 1013.7
20260905103604 17 19 1.6 3.2 0.00 0.00 0.00 42 1013.7
20260905103104 17 19 1.6 3.2 0.00 0.00 0.00 41 1013.7
20260905102603 17 19 1.6 3.2 0.00 0.00 0.00 41 1013.7
20260905102104 17 19 1.6 3.2 0.00 0.00 0.00 40 1013.7
20260905101104 17 19 3.2 3.2 0.00 0.00 0.00 41 1013.7
20260905100604 17 19 1.6 3.2 0.00 0.00 0.00 41 1013.7
20260905100104 17 19 1.6 3.2 0.00 0.00 0.00 41 1013.7
20260905095604 17 19 1.6 3.2 0.00 0.00 0.00 41 1013.7
20260905095104 17 19 1.6 3.2 0.00 0.00 0.00 41 1013.7
20260905094604 17 19 1.6 3.2 0.00 0.00 0.00 41 1013.7
20260905094104 17 19 1.6 3.2 0.00 0.00 0.00 41 1013.7
20260905093603 17 19 1.6 3.2 0.00 0.00 0.00 41 1013.7
20260905093103 17 19 1.6 3.2 0.00 0.00 0.00 41 1013.7
20260905092104 17 19 1.6 3.2 0.00 0.00 0.00 40 1013.7
20260905091604 17 19 1.6 3.2 0.00 0.00 0.00 39 1013.7
20260905091107 18 19 1.6 4.8 0.00 0.00 0.00 39 1013.7
20260905090604 18 19 1.6 4.8 0.00 0.00 0.00 38 1013.8
20260905090106 18 19 1.6 3.2 0.00 0.00 0.00 38 1013.7
20260905085604 17 19 1.6 3.2 0.00 0.00 0.00 39 1013.8
20260905085104 18 19 1.6 3.2 0.00 0.00 0.00 39 1013.8
20260905084604 18 19 1.6 3.2 0.00 0.00 0.00 39 1013.8
20260905084104 18 19 1.6 4.8 0.00 0.00 0.00 39 1013.8
20260905083603 18 19 1.6 4.8 0.00 0.00 0.00 38 1013.8
20260905083104 18 322 3.2 4.8 0.00 0.00 0.00 37 1013.9
20260905082604 18 284 3.2 4.8 0.00 0.00 0.00 37 1014.1
20260905082104 18 284 1.6 4.8 0.00 0.00 0.00 38 1014.2
20260905081603 18 284 3.2 4.8 0.00 0.00 0.00 38 1014.3
20260905081103 18 284 1.6 3.2 0.00 0.00 0.00 39 1014.3
20260905080604 18 284 1.6 3.2 0.00 0.00 0.00 38 1014.3
20260905080104 18 284 1.6 3.2 0.00 0.00 0.00 38 1014.3
20260905075604 18 284 1.6 3.2 0.00 0.00 0.00 38 1014.3
20260905075104 18 284 1.6 3.2 0.00 0.00 0.00 39 1014.3
20260905074604 18 284 1.6 3.2 0.00 0.00 0.00 38 1014.3
20260905074105 18 284 1.6 3.2 0.00 0.00 0.00 38 1014.3
20260905073604 18 284 1.6 3.2 0.00 0.00 0.00 38 1014.3
20260905073103 18 284 1.6 3.2 0.00 0.00 0.00 38 1014.3
20260905072104 18 284 0.0 1.6 0.00 0.00 0.00 38 1014.3
20260905071106 18 284 0.0 1.6 0.00 0.00 0.00 38 1014.3
20260905070604 18 284 0.0 1.6 0.00 0.00 0.00 38 1014.3
20260905070106 18 284 0.0 1.6 0.00 0.00 0.00 38 1014.2
20260905064104 18 284 1.6 4.8 0.00 0.00 0.00 38 1013.9
20260905063604 18 284 1.6 3.2 0.00 0.00 0.00 37 1014.1
20260905063104 18 284 1.6 3.2 0.00 0.00 0.00 37 1014.2
20260905062604 18 284 1.6 3.2 0.00 0.00 0.00 36 1014.2
20260905062104 19 284 0.0 3.2 0.00 0.00 0.00 36 1014.1
20260905061604 19 284 1.6 3.2 0.00 0.00 0.00 36 1014.1
20260905061104 19 284 1.6 3.2 0.00 0.00 0.00 36 1014.0
20260905060604 19 284 1.6 3.2 0.00 0.00 0.00 36 1014.1
20260905060104 19 284 1.6 3.2 0.00 0.00 0.00 36 1014.0
20260905055604 20 284 1.6 3.2 0.00 0.00 0.00 35 1014.0
20260905055104 20 284 0.0 3.2 0.00 0.00 0.00 35 1013.9
20260905054103 20 283 1.6 3.2 0.00 0.00 0.00 34 1013.9
20260905053603 20 283 0.0 3.2 0.00 0.00 0.00 34 1014.1
20260905053104 20 283 1.6 3.2 0.00 0.00 0.00 33 1014.1
20260905052104 20 283 1.6 3.2 0.00 0.00 0.00 32 1014.1
20260905051105 20 283 1.6 3.2 0.00 0.00 0.00 32 1014.1
20260905050603 21 283 1.6 3.2 0.00 0.00 0.00 31 1014.2
20260905045604 21 281 3.2 4.8 0.00 0.00 0.00 31 1014.2
20260905045103 21 281 1.6 4.8 0.00 0.00 0.00 31 1014.1
20260905044603 21 279 3.2 4.8 0.00 0.00 0.00 29 1014.2
20260905044105 21 278 1.6 4.8 0.00 0.00 0.00 29 1014.1
20260905043104 21 277 3.2 4.8 0.00 0.00 0.00 28 1014.0
20260905042604 21 277 1.6 3.2 0.00 0.00 0.00 28 1014.0
20260905042106 21 277 1.6 3.2 0.00 0.00 0.00 27 1014.0
20260905041604 21 277 1.6 3.2 0.00 0.00 0.00 27 1013.9
20260905040604 21 277 1.6 3.2 0.00 0.00 0.00 26 1013.9
20260905040108 21 277 0.0 1.6 0.00 0.00 0.00 27 1013.9
20260905035604 22 277 0.0 1.6 0.00 0.00 0.00 27 1013.9
20260905035104 22 277 0.0 1.6 0.00 0.00 0.00 27 1013.9
20260905034604 22 277 0.0 1.6 0.00 0.00 0.00 28 1013.8
20260905034104 22 277 0.0 0.0 0.00 0.00 0.00 31 1013.8
20260905033604 22 277 0.0 1.6 0.00 0.00 0.00 32 1013.8
20260905033105 22 277 0.0 3.2 0.00 0.00 0.00 31 1013.7
20260905032104 22 277 1.6 3.2 0.00 0.00 0.00 31 1013.4
20260905031104 22 276 0.0 3.2 0.00 0.00 0.00 31 1013.3
20260905030603 22 276 0.0 3.2 0.00 0.00 0.00 31 1013.3
20260905030108 22 276 0.0 1.6 0.00 0.00 0.00 30 1013.3
20260905025604 23 276 0.0 1.6 0.00 0.00 0.00 31 1013.2
20260905025103 23 276 0.0 4.8 0.00 0.00 0.00 30 1013.1
20260905024603 23 276 1.6 4.8 0.00 0.00 0.00 30 1012.8
20260905024104 23 278 0.0 3.2 0.00 0.00 0.00 30 1012.8
20260905023103 23 279 0.0 1.6 0.00 0.00 0.00 29 1012.8
20260905022604 24 279 0.0 1.6 0.00 0.00 0.00 30 1012.8
20260905021604 24 279 0.0 4.8 0.00 0.00 0.00 29 1012.7
20260905020604 25 280 1.6 8.0 0.00 0.00 0.00 30 1012.7
20260905020108 25 286 1.6 8.0 0.00 0.00 0.00 30 1012.7
20260905015604 25 288 1.6 8.0 0.00 0.00 0.00 30 1012.7
20260905014604 26 281 4.8 9.7 0.00 0.00 0.00 29 1012.7
20260905014104 26 282 4.8 9.7 0.00 0.00 0.00 29 1012.7
20260905013604 26 268 4.8 11.3 0.00 0.00 0.00 28 1012.7
20260905013103 27 269 4.8 11.3 0.00 0.00 0.00 27 1012.7
20260905012603 27 278 6.4 11.3 0.00 0.00 0.00 28 1012.7
20260905012104 27 286 6.4 9.7 0.00 0.00 0.00 28 1012.7
20260905011103 27 267 4.8 9.7 0.00 0.00 0.00 27 1012.7
20260905010107 27 228 3.2 14.5 0.00 0.00 0.00 27 1012.7
20260905005603 28 234 4.8 14.5 0.00 0.00 0.00 27 1012.7
20260905005104 28 229 6.4 16.1 0.00 0.00 0.00 26 1012.7
20260905004603 28 239 8.0 16.1 0.00 0.00 0.00 25 1012.7
20260905004104 28 213 6.4 14.5 0.00 0.00 0.00 26 1012.7
20260905003603 28 246 9.7 16.1 0.00 0.00 0.00 25 1012.7
20260905003104 28 253 9.7 16.1 0.00 0.00 0.00 25 1012.6
20260905002604 28 242 8.0 14.5 0.00 0.00 0.00 25 1012.6
20260905002103 28 246 8.0 12.9 0.00 0.00 0.00 25 1012.4
20260905001603 28 253 8.0 16.1 0.00 0.00 0.00 25 1012.4
20260905001104 28 271 9.7 16.1 0.00 0.00 0.00 26 1012.3
20260905000111 28 280 9.7 19.3 0.00 0.00 0.00 26 1012.4
20260904235604 28 256 11.3 19.3 0.00 0.00 0.00 25 1012.5
20260904235104 29 263 9.7 19.3 0.00 0.00 0.00 25 1012.4
20260904234604 29 268 9.7 16.1 0.00 0.00 0.00 25 1012.3
20260904234104 29 257 8.0 16.1 0.00 0.00 0.00 25 1012.3
20260904233604 29 265 8.0 19.3 0.00 0.00 0.00 25 1012.4
20260904232604 28 273 11.3 19.3 0.00 0.00 0.00 26 1012.4
20260904232105 28 249 8.0 22.5 0.00 0.00 0.00 26 1012.4
20260904231104 28 259 14.5 20.9 0.00 0.00 0.00 27 1012.5
20260904230604 29 265 9.7 19.3 0.00 0.00 0.00 27 1012.4
20260904230108 28 288 11.3 19.3 0.00 0.00 0.00 27 1012.4
20260904225604 29 266 12.9 19.3 0.00 0.00 0.00 27 1012.4
20260904225104 29 273 11.3 19.3 0.00 0.00 0.00 27 1012.4
20260904224604 29 280 11.3 20.9 0.00 0.00 0.00 27 1012.3
20260904223604 29 278 9.7 19.3 0.00 0.00 0.00 26 1012.5
20260904223104 29 289 11.3 19.3 0.00 0.00 0.00 26 1012.6
20260904222603 29 271 9.7 19.3 0.00 0.00 0.00 26 1012.7
20260904221604 29 288 9.7 22.5 0.00 0.00 0.00 26 1012.7
20260904220604 29 280 14.5 22.5 0.00 0.00 0.00 25 1012.7
20260904220105 29 277 9.7 22.5 0.00 0.00 0.00 25 1012.7
20260904215104 29 294 9.7 22.5 0.00 0.00 0.00 26 1012.7
20260904213104 28 267 8.0 16.1 0.00 0.00 0.00 25 1012.9
20260904212606 28 269 8.0 14.5 0.00 0.00 0.00 24 1013.0
20260904212104 28 261 8.0 16.1 0.00 0.00 0.00 24 1012.9
20260904211606 28 277 9.7 20.9 0.00 0.00 0.00 25 1012.9
20260904211106 28 288 11.3 20.9 0.00 0.00 0.00 24 1013.0
20260904210604 28 271 9.7 16.1 0.00 0.00 0.00 24 1013.1
20260904210107 28 275 8.0 14.5 0.00 0.00 0.00 25 1013.1
20260904205606 28 287 4.8 12.9 0.00 0.00 0.00 25 1013.1
20260904205104 28 267 8.0 12.9 0.00 0.00 0.00 26 1013.1
20260904204604 28 280 6.4 16.1 0.00 0.00 0.00 26 1013.1
20260904204104 27 292 11.3 16.1 0.00 0.00 0.00 27 1013.2
20260904203603 27 271 9.7 14.5 0.00 0.00 0.00 27 1013.1
20260904203104 27 282 8.0 14.5 0.00 0.00 0.00 28 1013.1
20260904202604 27 267 8.0 12.9 0.00 0.00 0.00 29 1013.1
20260904202104 27 296 4.8 12.9 0.00 0.00 0.00 29 1013.2
20260904201604 27 331 4.8 14.5 0.00 0.00 0.00 29 1013.2
20260904201104 27 287 9.7 19.3 0.00 0.00 0.00 30 1013.2
20260904195604 26 282 9.7 19.3 0.00 0.00 0.00 32 1013.3
20260904195104 26 232 4.8 19.3 0.00 0.00 0.00 31 1013.3
20260904194104 26 270 4.8 14.5 0.00 0.00 0.00 33 1013.4
20260904193605 26 301 8.0 16.1 0.00 0.00 0.00 34 1013.4
20260904192604 25 306 8.0 12.9 0.00 0.00 0.00 36 1013.7
20260904192104 25 289 4.8 14.5 0.00 0.00 0.00 38 1013.7
20260904191605 25 276 8.0 14.5 0.00 0.00 0.00 40 1013.8
20260904191104 24 280 3.2 12.9 0.00 0.00 0.00 39 1013.8
20260904190606 24 278 4.8 11.3 0.00 0.00 0.00 42 1013.8
20260904185604 24 320 4.8 19.3 0.00 0.00 0.00 44 1013.8
20260904185104 24 285 9.7 19.3 0.00 0.00 0.00 46 1013.9
20260904184604 23 283 6.4 12.9 0.00 0.00 0.00 47 1013.9
20260904184104 23 296 4.8 12.9 0.00 0.00 0.00 47 1014.0
20260904183604 23 265 8.0 12.9 0.00 0.00 0.00 48 1014.0
20260904183104 23 310 4.8 11.3 0.00 0.00 0.00 48 1014.0
20260904182604 23 289 4.8 12.9 0.00 0.00 0.00 48 1013.9
20260904182104 23 284 6.4 12.9 0.00 0.00 0.00 50 1014.0
20260904181603 22 283 3.2 11.3 0.00 0.00 0.00 50 1014.1
20260904181103 22 288 3.2 11.3 0.00 0.00 0.00 51 1014.1
20260904180104 22 290 4.8 11.3 0.00 0.00 0.00 54 1013.9
20260904175604 22 250 4.8 12.9 0.00 0.00 0.00 54 1014.1
20260904174604 21 299 4.8 9.7 0.00 0.00 0.00 55 1014.1
20260904174104 21 305 1.6 8.0 0.00 0.00 0.00 55 1014.1
20260904173604 21 296 3.2 11.3 0.00 0.00 0.00 56 1014.1